CARTOSAT-1

导读

CARTOSAT-1(又名IRS-P5)是印度空间研究组织于2005年5月5日发射的首颗制图遥感卫星。卫星搭载两台2.5米分辨率全色传感器,可获取同轨立体像对,用于1:25000比例尺地形图测绘、高程建模与资源调查,设计寿命5年,长期稳定运行,为全球测绘领域提供了可靠的高分辨率立体观测数据。

基本信息
目录编号:
28649
目录名称:
CARTOSAT-1
国际标识:
2005-017A
轨道中心:
EARTH
卫星名称:
CARTOSAT-1
卫星全名:
--
卫星状态:
在轨 (已飞行7711 天)
发射日期:
2005-05-05 UTC
国别 :
印度 (IN)
星等 :
--
轨道信息
数据来源 国际轨道数据 AOE轨道数据
星历时间 2026-06-15T06:20:23+0800
7小时前
查看轨道信息
2026-06-15T08:00:00+0800
5小时前
查看轨道信息
半长轴 6972.816km 6972.793km
偏心率 0.0002652 0.0002815
轨道倾角 97.531° 97.532°
近地点辐角 82.656° 84.953°
升交点赤经 189.098° 189.163°
平近点角 277.496° 286.312°
近地点 592.829km 592.693km
远地点 596.529km 596.619km
周期 96.577分钟 96.576分钟
每日圈数 14.91044 14.910515
详细信息
使用方式:
暂无
2D轨道图
3D轨道图
轨道高度分析图
轨道倾角分析图
轨道综合分析图
查看轨道综合分析图